Wind_Speed
55 54 53 52 52 51 51 51 51 50 50 49 49 50 49 48 47 47 48 48 48 48 47 47 46 46 46 46 46 45 45 45 45 45 45 45 45 45
56 56 54 53 53 52 51 51 51 52 52 50 50 51 51 50 49 48 49 49 50 50 49 49 49 49 48 48 48 48 48 47 47 47 47 47 47 47
56 56 55 55 55 54 52 51 51 51 52 52 52 52 51 51 50 50 50 50 51 51 51 52 51 51 51 51 51 51 51 50 50 49 49 49 49 48
56 57 57 56 56 55 54 53 52 52 53 53 53 52 52 52 52 52 52 51 52 52 53 53 53 53 53 54 53 53 53 53 52 52 52 51 51 50
56 56 56 56 56 55 55 55 54 54 53 53 53 53 53 53 53 53 53 53 52 53 53 54 54 55 55 55 55 55 55 55 55 55 54 54 53 53
56 56 56 56 56 55 55 56 56 55 55 54 54 53 53 53 54 54 54 54 53 54 54 54 55 56 57 57 57 57 57 57 57 57 56 56 55 55
56 56 56 56 57 56 56 56 57 56 56 56 55 54 55 55 55 55 55 54 54 54 55 55 56 57 57 58 58 58 57 57 57 57 57 57 58 57
57 57 56 57 56 57 57 56 57 56 56 57 57 56 56 56 56 56 55 55 55 55 56 56 56 57 58 58 58 59 58 58 59 59 59 59 59 59
57 58 57 57 56 56 56 56 57 57 58 58 58 58 57 57 57 57 56 56 56 56 56 56 57 58 59 59 59 59 59 59 59 60 60 60 60 60
57 57 58 57 56 56 56 56 57 57 59 60 59 59 59 58 58 58 58 57 57 57 57 57 57 58 58 59 59 60 60 60 59 59 59 60 60 60
57 57 57 56 56 56 56 57 57 57 58 58 59 59 59 58 58 57 57 58 57 57 58 58 58 59 59 59 59 60 61 60 60 60 60 60 60 60
57 57 57 57 57 57 57 57 57 57 58 58 58 58 58 58 58 58 58 58 57 57 57 58 58 58 59 59 59 59 60 60 61 61 61 61 61 61
57 57 56 56 57 57 57 57 57 58 58 58 58 58 58 58 58 58 58 58 57 56 56 57 57 58 58 58 58 59 59 58 59 59 60 61 61 61
55 55 55 55 56 56 56 57 58 59 59 59 58 58 57 57 57 57 57 57 57 57 57 57 58 58 58 57 57 57 58 57 57 57 58 59 59 60
52 52 53 54 54 54 55 56 57 57 57 57 57 57 57 56 55 56 56 57 57 57 57 57 57 57 57 57 57 57 57 57 57 57 57 57 57 58
52 52 52 53 53 53 53 54 54 55 55 55 55 55 56 55 55 55 55 55 56 56 56 56 56 56 56 56 56 56 56 56 56 56 56 56 56 57
51 50 51 52 53 53 53 53 53 53 54 53 53 54 54 55 54 54 54 54 54 54 54 54 54 54 54 54 54 54 54 54 54 54 54 54 54 55
48 49 49 50 51 51 52 52 52 52 52 52 53 53 53 53 53 53 53 53 53 53 53 53 53 53 53 52 52 52 52 51 51 51 51 51 51 52
48 47 47 48 49 50 51 51 51 50 50 50 50 51 52 52 52 52 52 52 52 52 52 52 52 51 51 51 51 51 50 49 49 49 49 49 49 49
46 46 47 47 48 48 49 49 50 50 49 49 49 50 51 52 51 51 51 52 51 50 50 50 50 50 51 50 50 49 49 49 48 48 48 47 47 48
44 44 45 46 46 47 47 48 48 48 48 48 48 49 49 50 50 50 50 51 51 50 50 50 50 50 50 49 48 47 48 48 48 48 47 47 46 46
42 43 43 44 44 45 46 47 48 48 48 48 48 49 49 49 49 50 50 50 49 48 48 48 48 48 48 47 46 45 46 46 47 47 47 46 46 45
40 41 41 42 43 44 45 46 46 46 47 47 47 47 47 47 48 48 48 48 48 47 47 46 46 47 46 46 45 45 45 45 45 46 46 46 45 45
Wind_Direction
250 249 249 250 250 248 248 250 251 251 252 253 254 253 254 255 256 256 255 256 256 257 257 258 259 261 262 263 264 265 267 268 269 269 270 271 272 272
249 249 249 249 249 248 248 250 251 251 252 253 254 254 255 255 256 256 257 256 257 258 258 259 259 260 262 263 263 264 266 267 268 269 269 270 271 272
249 248 248 249 248 248 249 251 251 252 252 252 254 254 254 255 256 257 258 257 258 259 259 260 261 261 262 263 264 264 265 266 267 268 269 269 270 271
249 249 249 250 249 249 250 251 251 252 253 253 254 255 255 256 257 258 259 258 259 260 261 261 262 262 262 263 264 264 265 266 267 267 268 269 270 271
250 250 250 251 250 250 251 251 251 252 253 253 254 254 255 256 257 258 259 260 261 261 262 262 262 263 263 263 264 265 266 266 267 267 267 269 270 271
250 251 251 251 250 251 251 252 252 252 253 254 254 254 255 257 258 259 260 261 262 262 263 263 264 264 264 264 265 266 266 266 267 267 268 268 269 270
250 251 251 251 251 251 252 253 253 253 253 254 254 255 257 259 260 260 261 262 263 264 265 265 265 265 265 265 266 266 266 266 267 267 268 269 269 270
250 250 250 251 252 253 253 253 253 253 254 255 256 257 259 260 260 260 261 262 263 264 265 266 266 266 266 266 266 266 267 267 267 268 268 269 269 269
249 249 249 250 252 253 254 254 253 254 255 255 257 258 259 259 260 261 262 262 263 264 265 265 266 266 266 266 266 267 267 267 268 268 269 269 269 269
249 249 249 249 251 253 254 254 253 254 255 256 257 258 259 259 259 260 261 262 263 264 265 265 266 266 266 266 266 266 267 267 268 268 269 268 268 269
248 248 249 249 251 252 253 253 253 254 254 255 256 257 259 259 259 260 261 262 263 263 264 265 266 266 266 266 266 266 267 267 267 268 268 268 268 269
248 248 249 250 251 252 252 252 252 253 253 254 256 257 258 259 260 261 261 262 263 263 264 266 266 266 266 267 267 267 267 267 267 268 268 268 268 269
248 248 249 250 251 252 252 252 252 253 253 254 255 256 258 259 260 261 261 262 262 263 264 265 265 266 267 267 267 267 267 267 267 267 268 268 268 269
248 249 250 251 251 251 251 252 253 253 254 254 255 256 257 258 259 260 261 262 263 263 263 264 265 266 266 266 266 266 267 268 267 268 268 268 269 269
249 250 250 250 250 251 252 252 252 253 253 254 255 256 257 258 259 260 261 262 263 263 263 264 265 265 265 265 265 266 266 267 268 268 268 269 270 270
249 250 250 249 250 250 251 252 252 253 253 254 255 256 256 256 257 259 260 262 262 263 263 264 265 265 265 265 266 266 266 267 268 269 269 270 270 271
250 250 250 250 250 250 251 252 253 254 254 255 255 255 256 257 257 258 259 260 261 261 263 264 264 265 265 265 266 266 266 267 268 269 269 270 270 271
251 252 252 251 251 251 252 253 254 255 255 255 255 256 257 257 258 258 259 260 261 261 262 263 264 264 265 265 266 266 267 267 268 269 270 271 271 272
252 251 252 251 252 252 252 253 254 254 255 255 255 256 257 258 258 259 260 260 261 261 262 263 264 265 265 265 266 266 267 267 268 269 270 271 272 273
252 252 252 252 252 253 253 253 253 254 255 256 257 258 258 258 258 259 260 260 260 262 263 263 264 265 265 265 265 266 266 267 268 269 270 272 273 273
252 251 252 252 253 253 253 253 254 255 257 257 258 259 258 258 258 259 260 261 261 262 262 263 264 264 265 265 264 265 266 267 268 269 271 272 272 273
252 252 253 254 253 253 253 254 255 256 257 258 258 258 258 258 258 259 259 260 261 262 263 263 263 263 264 264 264 265 266 267 268 270 271 272 272 273
252 252 253 253 253 254 254 255 255 255 257 258 258 258 257 257 257 258 259 259 260 261 262 262 262 263 263 264 265 265 266 267 269 270 271 271 272 273
Height
5661 5665 5668 5672 5676 5679 5682 5686 5689 5692 5695 5698 5700 5702 5704 5706 5708 5710 5711 5713 5714 5716 5718 5719 5721 5722 5723 5724 5725 5725 5726 5726 5727 5727 5727 5727 5727 5727
5647 5651 5655 5659 5662 5666 5669 5672 5675 5679 5682 5685 5688 5690 5692 5694 5695 5697 5699 5700 5702 5703 5704 5706 5708 5709 5710 5711 5712 5713 5714 5714 5715 5715 5715 5715 5715 5715
5633 5637 5641 5645 5649 5652 5655 5659 5662 5665 5668 5671 5674 5676 5678 5680 5682 5683 5685 5687 5688 5689 5691 5692 5694 5696 5697 5698 5699 5700 5700 5701 5702 5702 5702 5702 5702 5703
5619 5623 5627 5631 5634 5638 5641 5645 5648 5651 5654 5657 5660 5662 5664 5666 5668 5670 5671 5673 5675 5676 5677 5678 5680 5681 5682 5684 5685 5686 5687 5687 5688 5688 5689 5690 5689 5689
5605 5609 5613 5616 5620 5623 5627 5631 5634 5637 5640 5643 5646 5648 5650 5652 5654 5656 5657 5659 5660 5661 5662 5664 5665 5666 5668 5669 5670 5671 5672 5674 5674 5674 5674 5675 5675 5675
5590 5594 5598 5601 5605 5609 5613 5616 5620 5622 5625 5628 5631 5634 5636 5638 5639 5641 5643 5644 5646 5647 5648 5649 5650 5651 5652 5654 5656 5657 5657 5658 5658 5659 5660 5660 5660 5660
5576 5580 5583 5587 5590 5594 5598 5602 5605 5608 5610 5614 5617 5619 5621 5624 5625 5627 5628 5629 5631 5632 5633 5634 5635 5636 5637 5638 5639 5640 5641 5642 5643 5644 5644 5645 5645 5645
5561 5564 5568 5572 5576 5579 5583 5586 5589 5592 5596 5599 5602 5604 5607 5609 5610 5612 5613 5615 5617 5618 5618 5618 5619 5620 5621 5622 5623 5624 5625 5625 5626 5627 5628 5629 5629 5629
5545 5549 5553 5557 5560 5564 5567 5570 5573 5576 5580 5584 5586 5589 5592 5594 5596 5597 5598 5599 5601 5602 5602 5603 5604 5604 5605 5606 5607 5607 5608 5609 5609 5610 5611 5612 5612 5613
5530 5533 5537 5541 5545 5548 5551 5554 5557 5561 5564 5568 5572 5574 5576 5577 5579 5581 5582 5584 5586 5586 5587 5588 5588 5589 5589 5589 5590 5591 5591 5592 5593 5593 5594 5595 5595 5596
5514 5518 5522 5526 5530 5533 5536 5540 5542 5545 5548 5551 5554 5557 5559 5561 5563 5564 5566 5568 5570 5571 5571 5572 5573 5573 5573 5573 5574 5574 5575 5576 5576 5577 5578 5578 5578 5578
5499 5503 5507 5511 5514 5516 5519 5523 5526 5530 5532 5535 5538 5540 5543 5545 5546 5548 5550 5552 5554 5555 5556 5556 5556 5556 5557 5558 5558 5558 5558 5559 5559 5560 5561 5561 5561 5561
5484 5488 5491 5494 5498 5500 5503 5506 5510 5513 5516 5518 5521 5524 5526 5528 5530 5532 5533 5535 5537 5539 5540 5539 5540 5540 5540 5542 5542 5541 5541 5542 5542 5543 5543 5544 5544 5545
5470 5473 5477 5479 5482 5484 5487 5490 5493 5496 5499 5502 5504 5507 5510 5512 5514 5516 5517 5518 5520 5522 5523 5523 5523 5524 5524 5525 5525 5525 5525 5525 5526 5526 5527 5527 5527 5527
5455 5458 5461 5463 5466 5469 5472 5474 5477 5480 5482 5485 5489 5491 5494 5496 5498 5499 5501 5502 5503 5505 5506 5506 5507 5507 5507 5508 5509 5509 5509 5509 5510 5510 5510 5511 5511 5511
5439 5442 5445 5447 5450 5454 5456 5459 5461 5464 5467 5470 5473 5475 5478 5480 5482 5483 5485 5486 5487 5488 5489 5490 5490 5491 5491 5492 5492 5493 5493 5494 5494 5494 5494 5494 5494 5494
5425 5427 5430 5433 5435 5439 5442 5445 5447 5449 5452 5455 5457 5460 5462 5464 5466 5468 5469 5470 5472 5473 5474 5474 5474 5475 5476 5476 5477 5477 5478 5478 5478 5478 5478 5478 5478 5478
5410 5413 5417 5419 5422 5425 5428 5430 5433 5435 5437 5440 5442 5444 5447 5449 5451 5452 5454 5455 5457 5458 5459 5459 5460 5460 5461 5462 5462 5462 5463 5463 5463 5463 5463 5464 5464 5463
5396 5400 5403 5405 5408 5411 5413 5416 5418 5421 5423 5425 5427 5430 5432 5434 5435 5437 5439 5440 5442 5443 5444 5445 5445 5446 5446 5448 5448 5448 5448 5449 5449 5450 5450 5450 5450 5449
5382 5386 5389 5391 5394 5396 5399 5401 5404 5406 5408 5411 5413 5415 5417 5419 5421 5423 5424 5426 5427 5428 5429 5430 5431 5431 5432 5433 5434 5434 5434 5434 5435 5436 5436 5436 5436 5435
5369 5372 5374 5377 5380 5382 5385 5388 5390 5392 5394 5397 5399 5401 5402 5404 5406 5408 5410 5411 5412 5413 5415 5416 5416 5417 5417 5419 5420 5421 5420 5420 5421 5421 5422 5422 5422 5422
5356 5359 5361 5363 5366 5368 5371 5374 5376 5378 5380 5383 5384 5386 5388 5390 5392 5394 5395 5397 5398 5399 5400 5401 5402 5402 5404 5405 5406 5407 5407 5407 5407 5407 5407 5408 5408 5408
5343 5346 5348 5350 5352 5355 5357 5360 5362 5364 5366 5368 5370 5372 5374 5376 5377 5379 5381 5382 5384 5385 5386 5387 5388 5389 5390 5391 5393 5393 5394 5394 5394 5394 5394 5394 5394 5395